{"data":{"norad_id":64872,"intl_designator":"2025-154D","name":"SKYCRAFT-4B","alt_names":[],"object_type":"PAYLOAD","status":"ACTIVE","operator":null,"country":"AUS","launch_date":"2025-07-23","launch_site_code":"AFWTR","launch_vehicle":null,"mission":null,"orbit_class":"UNKNOWN","rcs_meters":null,"size_class":null,"mass_kg":null,"dimensions":null,"purposes":[],"wikipedia_slug":null,"has_3d_model":false,"image_url":null,"decayed_at":null,"tle_current":{"epoch":"2026-05-25T04:28:43.275072Z","epoch_age_seconds":52817,"freshness":"FRESH","line1":"1 64872U 25154D   26145.18661198  .00006437  00000+0  55966-3 0  9995","line2":"2 64872  97.6667 210.2340 0003869 354.2551   5.8626 14.97305079 45600","mean_motion":14.97305079,"eccentricity":0.0003869,"inclination_deg":97.6667,"raan_deg":210.234,"arg_perigee_deg":354.2551,"mean_anomaly_deg":5.8626,"bstar":0.00055966,"rev_number":4560,"period_min":96.172785372619,"perigee_km":572.53692580516,"apogee_km":577.91743900951,"semimajor_km":6953.3641824073,"source":"CELESTRAK","updated_at":"2026-05-25T13:38:04.868152Z"}}}